TimeEDT,TemperatureF,Dew PointF,Humidity,Sea Level PressureIn,VisibilityMPH,Wind Direction,Wind SpeedMPH,Gust SpeedMPH,PrecipitationIn,Events,Conditions,WindDirDegrees,DateUTC
12:53 AM,78.1,73.9,87,30.06,10.0,ENE,3.5,-,N/A,,Partly Cloudy,60,2013-08-17 04:53:00
1:53 AM,78.1,75.0,90,30.06,10.0,Calm,Calm,-,N/A,,Clear,0,2013-08-17 05:53:00
2:53 AM,77.0,75.0,94,30.05,10.0,NE,4.6,-,N/A,,Clear,40,2013-08-17 06:53:00
3:53 AM,77.0,75.0,94,30.04,10.0,East,4.6,-,N/A,,Clear,80,2013-08-17 07:53:00
4:53 AM,75.9,75.0,97,30.03,10.0,ENE,3.5,-,N/A,,Clear,60,2013-08-17 08:53:00
5:53 AM,75.9,73.9,94,30.04,10.0,Calm,Calm,-,N/A,,Clear,0,2013-08-17 09:53:00
6:53 AM,75.9,75.0,97,30.04,10.0,East,4.6,-,N/A,,Clear,100,2013-08-17 10:53:00
7:53 AM,79.0,77.0,94,30.05,10.0,East,3.5,-,N/A,,Clear,100,2013-08-17 11:53:00
8:53 AM,84.0,78.1,82,30.07,10.0,SE,6.9,-,N/A,,Clear,130,2013-08-17 12:53:00
9:53 AM,86.0,77.0,74,30.07,10.0,SE,11.5,-,N/A,,Clear,140,2013-08-17 13:53:00
10:53 AM,88.0,75.9,67,30.08,10.0,SSE,8.1,-,N/A,,Partly Cloudy,160,2013-08-17 14:53:00
11:53 AM,91.0,75.0,59,30.07,10.0,SSE,10.4,-,N/A,,Scattered Clouds,160,2013-08-17 15:53:00
12:53 PM,91.9,75.0,58,30.06,10.0,SE,10.4,-,N/A,,Partly Cloudy,130,2013-08-17 16:53:00
1:53 PM,93.0,73.9,54,30.04,10.0,SE,8.1,-,N/A,,Partly Cloudy,140,2013-08-17 17:53:00
2:53 PM,93.0,73.9,54,30.02,10.0,SE,10.4,-,N/A,,Mostly Cloudy,140,2013-08-17 18:53:00
3:53 PM,88.0,75.9,67,30.01,10.0,WNW,9.2,-,N/A,,Mostly Cloudy,300,2013-08-17 19:53:00
4:53 PM,88.0,78.1,72,30.01,10.0,WNW,11.5,-,N/A,,Clear,300,2013-08-17 20:53:00
5:49 PM,78.8,73.4,83,30.08,6.0,SSE,27.6,35.7,0.00,Rain,Light Rain,160,2013-08-17 21:49:00
5:53 PM,75.9,73.0,91,30.08,2.5,SSE,28.8,36.8,0.02,Rain,Light Rain,150,2013-08-17 21:53:00
6:00 PM,71.6,69.8,94,30.08,0.8,SE,17.3,36.8,0.20,Rain,Heavy Rain,140,2013-08-17 22:00:00
6:20 PM,73.4,71.6,94,-9999,1.2,SSW,9.2,-,0.69,Rain,Heavy Rain,200,2013-08-17 22:20:00
6:27 PM,73.4,71.6,94,-9999,2.0,South,5.8,-,0.74,Rain,Heavy Rain,180,2013-08-17 22:27:00
6:38 PM,73.4,71.6,94,-9999,6.0,Calm,Calm,-,0.76,Rain,Light Rain,0,2013-08-17 22:38:00
6:53 PM,75.0,72.0,90,-9999,10.0,Calm,Calm,-,0.76,Rain,Light Rain,0,2013-08-17 22:53:00
7:53 PM,75.9,73.9,94,-9999,10.0,North,4.6,-,0.04,Rain,Light Rain,10,2013-08-17 23:53:00
8:53 PM,77.0,73.9,90,-9999,10.0,Calm,Calm,-,0.02,,Scattered Clouds,0,2013-08-18 00:53:00
9:53 PM,77.0,75.0,94,-9999,10.0,NNE,3.5,-,N/A,,Clear,30,2013-08-18 01:53:00
10:53 PM,75.9,73.9,94,-9999,10.0,ENE,5.8,-,N/A,,Clear,60,2013-08-18 02:53:00
11:53 PM,75.9,73.9,94,-9999,10.0,East,5.8,-,N/A,,Clear,100,2013-08-18 03:53:00